Printer-friendly version

IAU Minor Planet Center

Minor Planet Center

MPEC 2006-O50 : 2006 OY10

The following Minor Planet Electronic Circular may be linked-to from your own Web pages, but must not otherwise be redistributed electronically.


Read MPEC 2006-O49 Read MPEC 2006-O51


M.P.E.C. 2006-O50                                Issued 2006 July 27, 15:32 UT

     The Minor Planet Electronic Circulars contain information on unusual
         minor planets and routine data on comets.  They are published
   on behalf of Commission 20 of the International Astronomical Union by the
          Minor Planet Center, Smithsonian Astrophysical Observatory,
                          Cambridge, MA 02138, U.S.A.

                  Supported in part by the Brinson Foundation
                  Supported in part by the TABASGO Foundation
             Prepared using the Tamkin Foundation Computer Network

                              MPC@CFA.HARVARD.EDU
          URL http://cfa-www.harvard.edu/iau/mpc.html  ISSN 1523-6714

                                   2006 OY10

Observations:
     K06O10Y*2C2006 07 21.25748912 20 35.298-01 30 21.54         21.2 R EO050568
     K06O10Y 2C2006 07 21.26264512 20 35.926-01 30 17.09         21.1 R EO050568
     K06O10Y 2C2006 07 21.26784512 20 36.573-01 30 12.57         21.2 R EO050568
     K06O10Y 2C2006 07 25.24772312 29 00.087-00 32 57.43         20.9 R EO050568
     K06O10Y 2C2006 07 25.25033512 29 00.418-00 32 55.24         20.8 R EO050568
     K06O10Y 2C2006 07 25.25298212 29 00.760-00 32 53.02         20.7 R EO050568
     K06O10Y 2C2006 07 26.29161512 31 15.031-00 18 13.39         21.0 R EO050568
     K06O10Y 2C2006 07 26.29412812 31 15.355-00 18 11.17         21.0 R EO050568
     K06O10Y 2C2006 07 27.26334112 33 21.836-00 04 35.66         20.8 R EO050568
     K06O10Y 2C2006 07 27.26478412 33 22.013-00 04 34.42         20.8 R EO050568
     K06O10Y 2C2006 07 27.26616212 33 22.196-00 04 33.31         20.8 R EO050568

Observer details:
568 Mauna Kea.  Observers R. Zelman [queue observer], A. Draginda [queue
    observer], F. Bernardi.  Measurers F. Bernardi, D. J. Tholen.  2.24-m
    University of Hawaii reflector + 2048 CCD, 3.6-m Canada-France-Hawaii
    Telescope + MegaCam.

Orbital elements:
2006 OY10                                                Earth MOID = 0.1364 AU
Epoch 2006 Sept. 22.0 TT = JDT 2454000.5                MPC
M 356.76314              (2000.0)            P               Q
n   0.40567628     Peri.   92.30704     +0.68169186     +0.55852161
a   1.8072420      Node   234.16096     -0.63787789     +0.77007237
e   0.5741649      Incl.   35.66019     +0.35834061     +0.30828909
P   2.43           H   18.7           G   0.15           U   5
Residuals in seconds of arc
060721 568  0.0   0.1+    060725 568  0.0   0.0     060727 568  0.1+  0.0
060721 568  0.1-  0.0     060725 568  0.1+  0.0     060727 568  0.1-  0.0
060721 568  0.1+  0.1-    060726 568  0.0   0.1-    060727 568  0.0   0.0
060725 568  0.0   0.0     060726 568  0.0   0.0

Ephemeris:
2006 OY10                a,e,i = 1.81, 0.57, 36                  q = 0.7696
Date    TT    R. A. (2000) Decl.     Delta      r     Elong.  Phase     V
2006 07 24    12 26.34   -00 50.7    1.189    1.202    65.5    50.3    21.3
2006 08 03    12 48.48   +01 28.1    1.181    1.112    60.3    52.4    21.2
2006 08 13    13 12.34   +03 43.8    1.158    1.025    55.9    54.9    21.1
2006 08 23    13 37.82   +06 03.5    1.118    0.943    52.3    58.0    20.9
2006 09 02    14 04.77   +08 33.8    1.059    0.871    49.7    62.1    20.7
2006 09 12    14 32.98   +11 19.3    0.981    0.814    48.3    67.5    20.6
2006 09 22    15 02.37   +14 19.8    0.883    0.779    48.2    74.0    20.5
2006 10 02    15 33.41   +17 29.4    0.770    0.770    49.5    81.1    20.4
2006 10 12    16 08.02   +20 36.6    0.646    0.790    52.2    87.5    20.3
2006 10 22    16 51.39   +23 23.8    0.519    0.835    57.0    91.6    20.1
2006 11 01    17 54.89   +25 13.5    0.400    0.899    64.8    91.4    19.7
2006 11 11    19 36.46   +23 48.8    0.311    0.975    78.2    83.6    19.0
2006 11 21    21 50.06   +15 14.0    0.290    1.060    96.3    67.9    18.5
2006 12 01    23 39.10   +04 19.1    0.355    1.148   108.3    54.6    18.7
2006 12 11    00 46.46   -02 18.4    0.477    1.238   110.9    48.0    19.4
2006 12 21    01 29.16   -05 25.0    0.625    1.327   109.1    44.5    20.0
2006 12 31    01 59.58   -06 37.6    0.788    1.415   105.5    42.0    20.6
2007 01 10    02 23.68   -06 49.9    0.958    1.501   101.2    40.0    21.1
2007 01 20    02 44.40   -06 28.5    1.133    1.584    96.6    38.1    21.5
2007 01 30    03 03.31   -05 48.4    1.311    1.664    91.8    36.3    21.9
2007 02 09    03 21.18   -04 58.8    1.490    1.742    86.9    34.4    22.2

Timothy B. Spahr             (C) Copyright 2006 MPC           M.P.E.C. 2006-O50

Read MPEC 2006-O49 Read MPEC 2006-O51


Our Web policy. Index to the CBAT/MPC/ICQ pages.


Valid HTML 4.01!